Location: ??????
(55.7522°N, 37.6156°E)
Time: 17:07:18
(UTC+00:00)

Cosmos 1833 Rocket - Pass Details

Date: 14 June 2025
Orbit: 832 x 837 km, 71.0° (Epoch: 13 July)

Event Time Altitude Azimuth Distance (km) Brightness Sun altitude
Rises 20:03:38 0° 321° (NW) 3,398 7.4 -8.8°
Reaches altitude 10° 20:06:25 10° 332° (NNW) 2,461 6.8 -9.0°
Maximum altitude 20:11:19 29° 33° (NNE) 1,485 4.5 -9.2°
Drops below altitude 10° 20:16:12 10° 93° (E) 2,450 4.9 -9.4°
Sets 20:18:57 0° 104° (ESE) 3,380 5.5 -9.5°
